Back to catalog

OPS 4682 DEB

AlivePO
NORAD 38383·DEBRIS·🇺🇸 United States

Launched Apr 3, 1965 from Vandenberg Space Force Base

Loading…

Next Passes (next 24 hours)

TLE

FreshSource: Space-Track

Epoch: Sep 14, 2026, 14:05 UTC

1 38383U 65027CL  26257.58745952 -.00000148  00000-0 -53833-3 0  9992
2 38383  90.2560  14.0083 0028201 234.6227 125.2258 12.97055284595191

Track OPS 4682 DEB in real time with AllMySat

Download on the App Store